Showing default

NAHLA, 66764

Orbit data source: Space-Track

NAHLA, 66764 is a payload satellite owned by Aerospacelab (BE) in SSO that was launched on Fri, 28 Nov 2025 UTC via an FALCON 9 launch vehicle from the Air Force Western Test Range (AFWTR). Payload-class satellites include a variety of spacecraft equipped with specific instruments for various scientific and technological missions. These include communications satellites like Starlink; space stations such as the ISS; scientific satellites like the Hubble; Earth observation satellites from companies like Planet Labs, Umbra, and HawkEye 360; GPS; miniature CubeSats for education and research; and military/defense satellites.

Loading next visibility...
Identifier
66764, 2025-276DC
Orbit
SSO
Country
Flag of BEBE / BEL
Related business
Manufacturer
Aerospacelab
Mission
Operational Commercial Imaging
Bus & Motor
VSP-150, 0
Mass
~200 kg wet, ~200 kg dry
Launch date (UTC)
2025-11-28 (6 months ago)
Launch vehicle
FALCON 9
Launch site
Air Force Western Test Range (AFWTR)
Object type
Payload
Rocket body
Debris
Shape & HBR
Box + 2 Pan, 1.0 m
Radar Cross Section
0.969 m², Large (>1 m²)

Expand to show TLE details & history
Last TLE update: 6 days ago

TLE from 6 days ago
0 NAHLA
1 66764U 25276DC  26155.13385888  .00003269  00000-0  16024-3 0  9990
2 66764  97.4198 228.8184 0003631  45.5250 314.6280 15.18824188 28433
Epoch: 2026-06-04T03:12Z
TLE epoch observation values (Epoch: 2026-06-04T03:12:45.407Z)
Latitude
-0.00009°
Longitude
-71.95328°
Altitude
510.725 km
Speed
7.609 km/s
True Right ascension
15h 15m 16s
True Declination
0° 00' 00"
Sunlit
Object was in full shadow at epoch
Visualization orbit readout
Latitude
Unknown
Longitude
Unknown
Altitude
Unknown
Speed
Unknown
Apparent Right ascension
Unknown
Apparent Declination
Unknown
Sunlit
N/A
Visualization observer readout
Local Sidereal Time
22:10:20
Azimuth
Unknown
Elevation
Unknown
Doppler factor
Unknown
Orbital elements
Apogee altitude
508.861 km
Perigee altitude
503.861 km
Semi-major axis
6,884.498 km
Eccentricity
0.00036
Inclination
97.4198°
RAAN
228.8184°
Arg. of periapsis
45.525°
True anomaly
314.59838°
Mean anomaly
314.628°
Eccentric anomaly
314.61319°
Mean motion
3.79957 °/min
Orbital period
94.75 mins
BSTAR
0.00016024
Loading maneuver chart data...
Computing Atmospheric mass density...
Loading historical data...
Loading historical data...
Loading historical data...
Loading historical data...
Loading historical data...
Loading historical data...
Loading historical data...

Documentation

Showing up to 5 results
|